SCP
0 0 0 0 0 0 0 0 0 0 0 0 0 0 0 0 0 0 0 0 0 0 0 0 0 1 2 3 3 2 2 1 1 0 0 0 0 0 0 1 1 1 1 1
0 0 0 0 0 0 0 0 0 0 0 0 0 0 0 0 0 0 0 0 0 0 0 0 0 1 2 2 2 2 2 1 1 0 0 1 0 0 1 1 1 1 1 1
0 0 0 0 0 0 0 0 0 0 0 0 0 0 0 0 0 0 0 0 0 0 0 0 1 1 1 2 2 2 1 1 1 1 1 1 1 1 1 1 1 1 1 1
0 0 0 0 0 0 0 0 0 0 0 0 0 0 0 0 0 0 0 0 0 1 1 1 1 1 1 1 1 1 1 1 1 1 1 1 1 1 1 1 1 0 0 0
0 0 0 0 0 0 0 0 0 0 0 0 0 0 0 0 0 0 0 0 0 0 1 1 1 1 1 1 1 1 1 1 1 1 1 1 1 1 0 0 0 0 0 0
0 0 0 0 0 0 0 0 0 0 0 0 0 0 0 0 0 0 0 0 0 0 0 0 0 0 0 0 0 0 0 0 0 0 0 0 0 0 0 0 0 0 0 0
0 0 0 0 0 0 0 0 0 0 0 0 0 0 0 0 0 0 0 0 0 0 0 0 0 0 0 0 0 0 0 0 0 0 0 0 0 0 0 0 0 0 0 0
0 0 0 0 0 0 0 0 0 0 0 0 0 0 0 0 0 0 0 0 0 0 0 0 0 0 0 0 0 0 0 0 0 0 0 0 0 0 0 0 0 0 0 0
0 0 0 0 0 0 0 0 0 0 0 0 0 0 0 0 0 0 0 0 0 0 0 0 0 0 0 0 0 0 0 0 0 0 0 0 0 0 0 0 0 0 0 0
0 0 0 0 0 0 0 0 0 0 0 0 0 0 0 0 0 0 0 0 0 0 0 0 0 0 0 0 0 0 0 0 0 0 0 0 0 0 0 0 0 0 0 0
0 0 0 0 0 0 0 0 0 0 0 0 0 0 0 0 0 0 0 0 0 0 0 0 0 0 0 0 0 0 0 0 0 0 0 0 0 0 0 0 0 0 0 0
0 0 0 0 0 0 0 0 0 0 0 0 0 0 0 0 0 0 0 0 0 0 0 0 0 0 0 0 0 0 0 0 0 0 0 0 0 0 0 0 0 0 0 0
0 0 0 0 0 0 0 0 0 0 0 0 0 0 0 0 0 0 0 0 0 0 0 0 0 0 0 0 0 0 0 0 0 0 0 0 0 0 0 0 0 0 0 0
0 0 0 0 0 0 0 0 0 0 0 0 0 0 0 0 0 0 0 0 0 0 0 0 0 0 0 0 0 0 0 0 0 0 0 0 0 0 0 0 0 0 0 0
0 0 0 0 0 0 0 0 0 0 0 0 0 0 0 0 0 0 0 0 0 0 0 0 0 0 0 0 0 0 0 0 0 0 0 0 0 0 0 0 0 0 0 0
0 0 0 0 0 0 0 0 0 0 0 0 0 0 0 0 0 0 0 0 0 0 0 0 0 0 0 0 0 0 0 0 0 0 0 0 0 0 0 0 0 0 0 0
0 0 0 0 0 0 0 0 0 0 0 0 0 0 0 0 0 0 0 0 0 0 0 0 0 0 0 0 0 0 0 0 0 0 0 0 0 0 0 0 0 0 0 0
0 0 0 0 0 0 0 0 0 0 0 0 0 0 0 0 0 0 0 0 0 0 0 0 0 0 0 0 0 0 0 0 0 0 0 0 0 0 0 0 0 0 0 0
0 0 0 0 0 0 0 0 0 0 0 0 0 0 0 0 0 0 0 0 0 0 0 0 0 0 0 0 0 0 0 0 0 0 0 0 0 0 0 0 0 0 0 0
0 0 0 0 0 0 0 0 0 0 0 0 0 0 0 0 0 0 0 0 0 0 0 0 0 0 0 0 0 0 0 0 0 0 0 0 0 0 0 0 0 0 0 0
0 0 0 0 0 0 0 0 0 0 0 0 0 0 0 0 0 0 0 0 0 0 0 0 0 0 0 0 0 0 0 0 0 0 0 0 0 0 0 0 0 0 0 0
0 0 0 0 0 0 0 0 0 0 0 0 0 0 0 0 0 0 0 0 0 0 0 0 0 0 0 0 0 0 0 0 0 0 0 0 0 0 0 0 0 0 0 0
0 0 0 0 0 0 0 0 0 0 0 0 0 0 0 0 0 0 0 0 0 0 0 0 0 0 0 0 0 0 0 0 0 0 0 0 0 0 0 0 0 0 0 0
0 0 0 0 0 0 0 0 0 0 0 0 0 0 0 0 0 0 0 0 0 0 0 0 0 0 0 0 0 0 0 0 0 0 0 0 0 0 0 0 0 0 0 0
0 0 0 0 0 0 0 0 0 0 0 0 0 0 0 0 0 0 0 0 0 0 0 0 0 0 0 0 0 0 0 0 0 0 0 0 0 0 0 0 0 0 0 0
0 0 0 0 0 0 0 0 0 0 0 0 0 0 0 0 0 0 0 0 0 0 0 0 0 0 0 0 0 0 0 0 0 0 0 0 0 0 0 0 0 0 0 0
Wind_Speed
9 12 13 10 6 6 3 5 6 6 4 6 5 9 10 10 8 6 6 5 6 5 5 5 6 5 4 6 8 12 14 13 2 8 5 4 3 4 3 4 5 4 2 2
10 15 8 4 6 7 8 10 10 5 3 6 11 11 12 11 12 10 8 8 8 8 7 6 4 1 4 4 6 11 10 10 7 7 1 2 2 3 3 3 3 3 4 5
16 4 6 9 10 11 12 12 11 9 8 6 10 11 11 12 12 12 13 12 12 12 11 10 7 5 5 7 8 11 11 11 6 2 1 4 4 4 3 2 1 4 5 5
13 9 9 11 12 13 13 10 8 9 11 8 8 7 13 13 13 14 13 13 12 11 11 12 12 11 10 11 10 10 11 11 7 3 3 4 4 5 6 5 5 4 4 6
10 11 13 13 10 11 5 7 8 9 11 6 8 9 11 12 11 12 12 12 13 14 14 15 14 14 14 13 13 13 13 12 11 10 9 7 7 6 4 6 7 6 6 8
7 4 6 4 3 5 7 9 7 8 9 12 9 7 6 7 6 10 12 12 13 14 14 15 14 14 14 14 13 13 14 14 13 13 13 12 11 9 9 9 9 9 10 10
14 13 8 5 7 7 11 12 10 12 12 9 4 7 5 8 6 9 12 12 12 12 12 12 13 13 13 13 12 11 12 12 11 11 11 11 9 8 9 9 10 11 11 11
15 16 14 10 12 11 15 15 14 10 11 7 8 8 8 9 9 9 10 11 10 10 11 12 12 11 12 11 11 10 10 10 9 9 8 7 7 7 8 10 11 11 10 11
10 10 8 4 6 8 11 11 11 12 9 9 7 6 8 11 11 11 11 11 10 9 10 10 10 10 11 11 10 10 9 8 8 8 8 8 9 10 10 11 11 10 11 11
14 10 11 9 6 4 7 8 9 12 14 12 11 10 10 19 15 13 12 11 10 9 9 9 9 10 9 9 8 8 8 8 8 9 9 9 10 11 12 12 12 12 12 13
18 14 10 9 12 11 9 10 9 8 7 10 13 3 5 10 14 13 12 11 10 9 8 8 8 8 8 7 7 7 8 8 9 10 11 12 12 13 13 13 12 12 12 12
16 14 15 9 3 4 7 8 12 11 11 10 11 2 2 7 11 12 11 10 9 7 7 7 7 7 6 7 7 8 8 9 11 12 12 13 13 14 13 13 12 12 12 12
11 13 16 11 8 8 10 8 9 9 10 10 9 2 7 10 11 11 10 9 8 5 5 6 6 7 7 7 8 8 9 10 12 13 14 14 14 14 14 14 14 13 11 10
7 12 18 18 16 17 16 12 13 15 13 14 10 8 12 13 13 11 9 7 5 4 5 6 7 7 7 7 8 9 10 11 13 14 13 13 13 13 13 13 12 12 11 11
8 10 10 3 1 5 11 14 13 12 8 7 1 6 14 13 12 11 8 5 2 2 4 6 8 7 7 8 9 10 11 11 11 11 11 10 9 10 11 12 12 11 11 11
8 8 10 8 6 8 10 11 9 6 5 3 5 9 12 13 12 9 6 2 1 3 5 7 8 7 8 10 11 11 9 8 7 7 7 8 10 10 11 12 12 10 10 11
12 12 13 10 10 10 10 12 10 7 3 4 5 12 15 13 10 6 4 2 3 6 8 8 7 8 9 9 10 9 8 8 8 9 10 9 10 12 12 10 10 10 11 12
13 14 10 9 11 9 5 4 4 7 6 5 13 16 14 11 8 6 4 5 6 8 7 6 6 7 8 8 8 8 7 8 9 8 8 10 10 10 10 10 9 10 10 11
9 12 7 8 12 5 7 8 12 12 9 10 15 15 12 9 5 8 8 7 7 6 5 6 7 7 7 7 6 7 7 8 9 10 10 9 8 8 9 9 10 10 10 11
4 7 7 7 9 9 7 11 9 9 10 11 13 13 10 5 3 9 8 6 5 4 5 6 6 6 5 5 6 6 7 8 10 10 8 6 6 7 8 9 9 10 11 10
7 5 6 6 5 3 8 12 10 8 12 16 12 10 7 3 6 7 5 5 4 4 5 6 6 4 3 5 5 6 7 9 8 6 5 5 6 7 8 10 9 9 10 10
7 5 4 4 6 5 14 14 7 10 16 14 11 8 6 5 5 4 4 4 3 4 5 5 4 2 1 4 5 6 6 6 5 4 5 6 6 7 8 10 9 9 10 10
4 3 1 1 1 10 14 10 13 16 16 12 9 8 6 5 5 4 3 3 3 4 5 3 2 1 1 2 5 6 7 6 6 7 7 7 7 8 9 10 9 8 10 11
3 4 5 6 10 14 12 16 15 14 13 11 10 9 6 5 4 3 3 3 3 5 4 2 3 3 2 5 6 7 8 8 8 9 8 8 7 5 8 7 8 9 9 11
6 9 8 11 16 14 15 16 15 14 13 12 10 8 6 4 4 3 3 4 4 5 4 3 2 4 6 6 6 6 6 7 8 8 7 7 7 7 8 8 6 6 7 7
2 5 7 9 14 10 16 16 15 14 13 12 10 9 6 4 4 3 4 4 5 5 4 2 3 5 6 6 6 6 6 7 8 9 9 7 7 8 8 9 6 3 4 5
Wind_Direction
199 228 224 222 225 281 267 242 226 203 161 225 130 80 61 52 53 51 28 13 352 342 6 352 298 263 216 194 152 135 129 119 167 252 184 173 142 131 143 140 150 163 179 253
207 229 226 174 194 217 216 222 224 196 188 218 120 108 87 71 67 55 39 36 17 13 27 21 344 290 228 151 133 137 148 135 182 262 357 71 82 108 112 119 98 37 2 338
233 196 159 191 198 214 219 231 231 207 163 190 160 146 119 95 74 63 52 45 38 34 38 48 50 61 72 96 118 121 127 130 142 77 223 134 155 154 165 122 39 19 343 340
230 208 201 215 219 221 229 212 228 198 202 196 210 213 138 116 85 65 56 51 49 51 55 59 66 74 82 91 98 102 110 115 112 114 97 62 39 30 24 353 6 335 347 345
208 199 206 218 218 214 207 157 202 206 226 247 217 244 139 154 107 77 70 66 66 65 66 67 70 76 82 86 88 86 84 78 71 64 53 49 41 31 12 4 342 328 340 331
221 186 225 215 125 218 162 166 182 220 233 242 224 237 150 113 99 108 98 89 83 79 78 79 78 75 74 76 78 75 71 65 60 57 52 47 39 20 5 355 336 342 331 323
213 207 197 197 183 168 199 198 207 213 221 231 155 226 92 94 114 120 117 108 102 96 86 76 71 70 67 66 68 72 72 69 63 58 51 41 24 7 351 348 344 331 322 323
207 206 196 203 228 209 208 222 236 237 244 210 154 232 115 115 118 117 115 114 111 99 84 75 69 70 71 68 65 67 67 63 55 47 37 28 5 353 345 348 332 319 320 319
222 216 146 183 226 246 211 227 258 276 264 267 226 139 136 150 150 148 139 132 119 99 84 77 72 67 66 67 62 57 55 48 33 21 7 359 354 345 336 328 316 313 313 310
233 226 181 164 185 207 258 222 207 234 247 243 242 211 187 174 170 163 156 140 124 106 89 75 66 60 56 54 55 45 32 19 7 356 350 344 338 333 328 320 313 313 313 313
225 226 200 180 215 211 190 212 237 269 262 261 251 218 40 165 166 167 152 134 122 107 85 66 56 53 46 32 26 18 8 358 353 346 342 336 332 328 321 314 314 317 321 323
213 218 220 195 126 300 281 251 216 225 234 240 272 314 67 130 149 158 146 131 113 85 64 58 45 30 17 14 11 3 358 351 345 338 331 327 324 321 318 320 327 332 330 331
184 206 213 196 194 202 219 213 234 238 261 253 253 186 135 143 148 152 146 134 114 82 58 43 22 14 15 11 4 358 352 344 334 329 327 327 330 335 335 338 337 325 314 308
215 219 218 225 225 211 195 202 207 214 228 243 242 144 158 167 161 155 148 137 107 81 51 24 11 20 21 11 360 351 343 341 339 338 339 349 355 346 336 327 311 304 305 307
215 220 216 227 268 222 186 188 196 216 237 274 302 126 148 161 151 145 145 135 110 66 32 25 21 21 10 0 352 348 348 356 356 353 355 356 340 324 313 313 315 318 319 322
205 204 179 158 155 158 163 170 173 172 178 165 134 104 126 135 132 146 147 118 46 7 16 23 26 8 2 357 350 345 358 358 350 341 342 343 333 323 322 326 334 338 349 350
192 182 194 176 161 160 179 177 173 160 187 193 164 126 139 147 153 144 114 54 16 11 14 24 7 1 1 352 340 346 351 340 343 355 352 346 332 332 337 341 356 1 357 354
189 184 201 164 172 209 114 107 164 141 126 110 113 130 144 137 130 116 56 14 18 17 20 12 360 359 356 351 350 346 344 339 335 341 342 338 348 351 2 7 1 353 348 351
211 170 162 183 209 180 140 165 168 151 128 131 130 134 130 125 165 108 73 51 41 33 29 14 8 350 357 354 347 337 352 326 331 350 356 355 357 359 8 6 1 354 345 356
207 194 165 191 206 222 136 151 168 152 147 151 143 140 135 153 231 91 76 62 68 54 32 15 356 347 1 353 346 350 339 356 6 10 9 359 357 359 360 355 352 350 346 358
155 157 149 165 194 119 117 145 162 193 147 150 143 136 139 126 50 65 74 80 70 43 33 16 356 4 351 352 354 351 357 19 16 24 21 3 357 348 354 347 349 347 346 350
167 151 150 202 227 192 146 157 173 117 125 136 137 135 134 108 102 94 84 72 45 19 38 25 5 10 343 349 345 343 9 3 354 360 349 345 345 345 350 340 342 347 352 345
129 128 188 290 108 118 148 126 120 123 128 135 135 130 133 129 110 101 88 53 35 27 47 32 31 80 106 334 320 323 330 324 321 323 332 335 337 349 345 351 354 360 2 352
142 158 183 164 122 131 132 126 129 125 127 130 128 131 138 113 103 105 74 48 51 74 80 93 117 94 7 328 316 309 308 311 307 316 330 331 327 340 343 4 3 3 12 359
141 163 139 128 131 132 139 137 129 125 127 123 121 117 108 105 92 73 78 82 92 99 110 114 53 356 334 331 327 333 341 337 335 329 329 342 345 355 352 4 15 9 39 20
157 155 176 157 154 154 149 144 140 141 139 133 126 117 102 86 89 82 88 102 117 127 127 93 3 333 341 344 355 10 8 2 1 360 8 17 359 4 5 359 18 88 117 122